DECAYED

CZ-6C R/B, 59681 (Decayed)

Orbit data source: Space-Track

CZ-6C R/B, 59681 was space debris in LEO originally from a launch on Tue, 07 May 2024 UTC launched from the Taiyaun Space Center, China (TSC). Debris objects in space refer to the collection of defunct objects orbiting the Earth. Examples of debris include non-operational satellites, rocket bodies, and fragments generated from explosions, collisions, or faulty payload assembly.

Not visible in the next 10 days
Identifier
59681, 2024-085E
Orbit
Decayed
Country
Flag of CNCN / PRC
Related business
Manufacturer
SAST
Mission
Decayed spacecraft
Bus & Motor
CZ-6 STAGE 2, Unknown motor
Mass
3,000 kg wet, 3,000 kg dry
Launch date (UTC)
2024-05-07 (2 years ago)
Launch vehicle
Unknown
Launch site
Taiyaun Space Center, China (TSC)
Object type
Payload
Rocket body
Debris
Shape & HBR
Cyl, 4.0 m
Radar Cross Section
21.524 m², Large (>1 m²)

Expand to show TLE details & history
Last TLE update: 5 months ago

TLE from 5 months ago
0 CZ-6C R/B
1 59681U 24085E   26022.81715313  .11615887  25870-5  11480-3 0  9990
2 59681  97.2986 126.2654 0009913 243.1356 116.8937 16.50840862 97274
Epoch: 2026-01-22T19:36Z
TLE epoch observation values (Epoch: 2026-01-22T19:36:42.030Z)
Latitude
0.00002°
Longitude
69.92539°
Altitude
143.318 km
Speed
7.818 km/s
True Right ascension
08h 25m 03s
True Declination
0° 00' 00"
Sunlit
Object was in full shadow at epoch
Visualization orbit readout
Latitude
Unknown
Longitude
Unknown
Altitude
Unknown
Speed
Unknown
Apparent Right ascension
Unknown
Apparent Declination
Unknown
Sunlit
N/A
Visualization observer readout
Local Sidereal Time
23:20:41
Azimuth
Unknown
Elevation
Unknown
Doppler factor
Unknown
Orbital elements
Apogee altitude
140.367 km
Perigee altitude
127.456 km
Semi-major axis
6,512.048 km
Eccentricity
0.00099
Inclination
97.2986°
RAAN
126.2654°
Arg. of periapsis
243.1356°
True anomaly
116.99495°
Mean anomaly
116.8937°
Eccentric anomaly
116.94433°
Mean motion
4.13016 °/min
Orbital period
87.16 mins
BSTAR
0.0001148
Loading maneuver chart data...
Computing Atmospheric mass density...
Loading historical data...
Loading historical data...
Loading historical data...
Loading historical data...
Loading historical data...
Loading historical data...
Loading historical data...
Other satellites on launch #85 in the year 2024 (2024-05-07 UTC)

Documentation

Showing up to 5 results
|